Terug naar catalogus

COSMOS 1684

ActiefMilitairHEO
NORAD 16064·PAYLOAD·🇷🇺 Russia

Gelanceerd Sep 24, 1985 vanaf Plesetsk Cosmodrome

Loading…

Volgende Passages (komende 24 uur)

TLE

VersSource: Space-Track

Epoch: Sep 8, 2026, 20:10 UTC

1 16064U 85084A   26251.84093758 -.00000623  00000-0  00000-0 0  9994
2 16064  67.7388  78.4884 5243805  93.6389 325.0380  2.00591346300006

Volg COSMOS 1684 in realtime met AllMySat

Download on the App Store